Location: Poprad
(49.0500°N, 20.3000°E)
Time: 18:28:03
(UTC+02:00)

RS-44 - Pass Details

Date: 25 April 2024
Orbit: 1174 x 1511 km, 82.5° (Epoch: 20 May)

Event Time Altitude Azimuth Distance (km) Brightness Sun altitude
Rises 21:30:49 0° 223° (SW) 4,614 ? -15.2°
Reaches altitude 10° 21:34:09 10° 232° (SW) 3,610 ? -15.6°
Maximum altitude 21:41:49 34° 295° (WNW) 2,188 ? -16.5°
Drops below altitude 10° 21:49:08 10° 358° (N) 3,427 ? -17.3°
Sets 21:52:14 0° 8° (N) 4,352 ? -17.6°
